Volver al catálogo

STARLINK-4132

ActivoComunicacionesVLEO
NORAD 53252·PAYLOAD·🇺🇸 United States

Lanzado Jul 24, 2022 desde Cape Canaveral Space Force Station

Loading…

Próximos Pases (próximas 24 horas)

TLE

ActualizadoSource: CelesTrak SupGP

Época: Sep 15, 2026, 02:32 UTC

1 53252C 22086L   26258.10604167 -.00032900  00000+0 -10582-2 0  2584
2 53252  53.1583  50.3235 0001132  84.2445 114.9504 15.31712231    17

Sigue STARLINK-4132 en tiempo real con AllMySat

Download on the App Store